Theta_e
301 301 301 301 300 301 301 301 302 302 302 302 302 302 302 302 302 302 303 303 303 302 302 302 302 302 303 304 304 303 304 305 305 305 306 306 305 304 304 304 304 304 303 303 303 304 306 306 307 307 307 307 307 307 309 314 322 326 328 332 332 331 332 329 323 320 317 316 317 317 314 319 324 313 308 309 311 313 313 314 313 310 307 306 305 304 307 308
301 300 300 300 301 301 301 301 301 301 302 302 302 302 302 302 301 302 302 303 303 302 302 302 302 302 303 304 304 303 304 305 305 306 306 305 304 304 304 304 304 304 303 304 303 305 308 307 305 306 307 308 306 306 311 313 318 328 329 330 332 332 333 327 319 316 314 313 316 318 313 314 320 315 309 314 319 314 314 316 313 313 312 307 303 304 307 307
301 301 301 301 300 301 302 302 302 302 302 302 302 302 302 302 302 302 302 302 302 302 302 302 302 302 303 303 303 304 304 304 305 306 305 304 305 304 304 304 305 305 303 303 305 305 307 307 304 307 309 307 308 308 312 313 316 326 327 326 331 332 331 324 315 312 310 308 312 315 312 312 314 312 311 316 320 316 316 317 317 319 318 313 307 303 305 305
301 301 301 301 301 302 303 303 303 303 303 302 302 302 302 302 302 302 302 302 302 302 302 302 302 302 303 303 303 304 304 305 305 306 305 304 305 305 304 305 304 305 304 303 306 307 307 306 304 307 308 308 312 310 311 315 317 322 322 327 330 323 324 325 313 308 307 304 309 315 311 312 312 309 311 315 316 316 315 314 316 320 319 316 311 304 302 304
301 302 301 301 301 302 304 304 304 304 304 303 303 302 302 302 302 302 302 302 302 302 302 302 302 302 303 303 304 304 304 306 306 304 304 305 305 305 305 304 305 305 304 303 304 306 306 305 303 308 308 307 311 310 312 315 316 320 321 325 326 316 317 320 310 305 305 303 307 312 311 311 310 308 311 313 314 314 315 315 314 316 316 315 311 305 302 303
302 302 302 301 301 303 305 306 306 306 306 305 304 304 303 302 302 302 302 302 302 302 302 302 302 302 302 303 303 304 304 306 306 304 305 305 304 305 305 304 305 304 304 304 304 304 306 305 304 308 309 307 309 309 311 311 310 316 318 318 318 312 313 312 306 304 303 303 306 309 308 307 309 311 311 310 311 311 315 317 313 312 309 308 307 304 304 305
302 302 302 301 302 304 305 306 305 305 306 306 306 305 304 303 302 302 302 302 302 302 302 302 302 302 303 303 303 305 306 305 305 304 305 304 305 305 304 305 304 304 305 304 304 305 306 306 306 308 308 307 309 309 309 308 308 312 316 318 312 306 308 307 304 303 302 303 305 304 304 305 310 310 307 308 309 309 312 310 307 304 302 303 306 306 305 305
302 302 302 301 303 305 304 304 304 304 304 304 305 305 305 304 303 303 302 302 302 302 302 302 302 302 303 303 304 308 307 304 305 305 305 305 305 305 305 305 304 304 304 304 305 306 306 306 305 305 306 307 308 309 308 307 310 311 314 317 309 303 306 305 303 303 303 304 302 302 303 304 308 306 303 306 306 306 308 307 305 305 305 307 310 308 305 304
302 302 301 302 304 304 303 303 304 303 303 303 304 304 305 304 304 303 303 303 302 302 302 302 302 302 303 303 303 307 307 305 305 305 305 305 305 305 305 304 304 304 304 304 304 303 305 306 306 305 306 307 307 309 308 308 312 312 311 311 307 304 306 304 303 304 304 304 302 302 304 304 303 302 302 304 304 304 305 305 307 308 311 311 310 307 305 305
302 302 301 303 304 304 303 303 303 303 304 303 303 304 304 304 304 303 303 303 302 302 302 302 302 302 304 303 304 307 307 305 305 305 304 304 304 305 305 304 304 304 304 303 303 303 304 305 304 303 305 307 306 307 307 308 309 308 308 307 305 305 306 303 302 304 303 303 303 302 304 304 302 301 303 304 305 306 305 305 306 307 309 310 308 305 303 304
302 302 302 303 304 303 303 303 303 303 304 303 303 304 304 304 303 304 303 303 302 302 301 302 302 303 304 305 308 309 306 305 305 305 304 304 305 305 305 304 304 304 304 303 303 303 304 303 302 302 305 306 305 306 307 307 305 304 305 306 308 308 307 304 303 303 301 302 303 302 302 302 301 301 303 303 306 307 306 308 309 308 308 306 305 304 302 302
302 301 303 304 304 303 303 303 303 303 303 303 304 304 304 304 304 303 303 302 302 302 302 301 302 304 305 306 310 309 305 305 305 304 304 304 304 305 305 304 304 304 304 303 303 304 303 303 302 304 306 304 306 305 305 304 302 303 304 306 311 310 307 305 303 302 300 302 303 302 303 304 302 303 304 303 306 306 305 308 310 309 307 304 303 302 301 301
301 301 303 304 303 303 303 303 303 304 304 304 304 304 304 304 303 303 302 302 302 302 302 301 302 305 305 307 309 306 305 305 304 304 304 304 303 304 304 304 304 304 304 303 304 304 303 303 303 305 305 306 308 304 304 306 303 303 304 305 309 309 309 304 300 300 300 302 303 303 305 307 307 307 305 303 303 304 304 306 307 308 306 303 302 301 301 300
301 301 303 304 304 303 303 303 304 304 304 304 304 304 304 303 303 303 302 302 302 302 302 302 303 305 306 309 307 304 305 305 304 304 303 303 303 303 304 304 304 304 304 304 304 304 304 304 303 303 303 305 305 300 307 314 310 306 304 308 309 306 312 310 302 302 301 302 301 303 306 306 307 308 306 303 301 301 303 304 303 303 303 302 301 300 301 300
301 302 304 304 304 303 303 303 303 303 303 303 303 303 303 303 303 302 302 303 303 304 304 303 304 305 308 310 306 304 305 304 304 303 302 303 302 302 303 303 304 304 304 304 304 304 303 304 304 305 304 303 305 305 311 317 316 310 304 312 312 305 313 314 305 303 303 302 300 302 307 306 304 305 304 303 301 301 303 304 302 301 301 301 301 299 300 299
301 303 304 304 304 303 304 303 303 303 303 303 303 303 303 303 303 303 303 304 304 304 304 306 306 306 309 309 304 304 304 304 303 302 302 302 301 302 303 303 304 304 304 303 304 303 303 306 304 304 304 303 310 316 313 311 316 314 306 309 312 307 310 311 306 303 302 302 301 302 305 305 304 304 303 302 301 302 303 305 304 301 299 298 298 298 299 299
302 303 304 304 304 304 304 304 304 304 303 303 303 303 303 303 304 304 304 304 305 305 304 306 307 305 306 306 304 304 304 302 302 302 301 301 302 302 302 303 303 302 303 303 303 303 302 305 303 303 309 309 312 315 310 309 314 315 309 309 311 309 308 310 309 304 299 301 302 302 302 302 302 302 302 302 302 303 303 303 303 301 299 298 297 297 298 298
302 303 304 305 304 304 304 304 304 304 305 305 304 305 304 304 304 304 305 305 305 305 305 305 305 306 307 305 304 303 302 301 302 302 301 301 301 302 303 303 301 301 305 304 304 304 303 306 307 309 314 311 311 311 308 311 311 310 309 309 311 310 308 309 309 305 301 302 303 302 302 302 301 301 300 301 301 302 301 300 299 299 299 299 298 297 296 297
302 303 304 304 304 304 304 305 306 306 307 307 306 306 305 306 306 305 305 304 306 307 306 305 306 308 307 303 301 302 301 301 302 301 301 301 301 302 303 301 302 304 306 307 306 306 305 307 310 310 310 309 311 311 308 311 310 308 309 310 310 310 308 307 307 305 302 304 305 303 303 303 301 301 301 300 301 302 301 299 298 298 298 298 298 297 296 296
302 303 304 305 304 304 304 305 306 307 307 307 308 308 309 313 316 314 309 306 307 305 306 307 306 305 305 302 301 302 302 301 302 301 300 300 300 302 301 301 306 308 307 308 308 306 303 306 310 309 311 312 312 311 309 309 307 307 309 310 308 308 307 305 305 305 301 304 308 305 304 303 301 301 300 299 300 301 300 298 298 297 297 297 297 297 296 296
303 303 304 305 304 304 304 304 305 307 307 307 308 309 312 315 315 312 309 307 303 300 305 307 302 302 302 300 300 300 301 302 301 300 300 300 300 300 302 304 307 307 308 307 307 305 303 306 311 309 308 308 309 309 307 307 306 306 307 308 308 306 306 303 302 303 301 303 307 304 302 302 300 299 299 297 297 298 298 297 297 297 296 296 296 296 296 295
304 303 303 304 305 304 304 304 305 307 307 308 308 309 309 310 310 306 305 307 303 298 302 303 299 302 301 299 300 300 301 303 301 301 300 300 301 302 304 306 306 307 308 305 306 308 307 307 309 307 303 303 306 306 305 306 306 306 306 306 307 305 304 303 300 300 300 302 305 302 299 299 298 297 297 296 296 296 296 296 296 296 295 295 295 295 295 295
304 304 303 304 305 304 304 305 305 306 307 308 307 308 308 309 309 306 306 309 307 303 304 303 302 304 303 300 300 300 301 302 301 302 300 300 303 302 303 306 307 307 306 305 307 307 308 309 306 302 302 304 305 304 303 304 304 306 306 305 306 304 302 304 302 299 299 301 303 300 297 296 296 297 297 296 298 298 297 298 296 295 295 295 295 295 294 294
305 305 304 303 304 305 304 305 306 306 307 308 306 307 309 309 308 308 308 308 309 307 304 302 302 303 303 301 299 301 302 300 301 301 299 302 304 301 302 305 306 306 306 307 308 306 306 306 301 300 303 303 304 303 303 304 305 307 306 304 305 303 301 303 301 298 297 297 296 296 297 298 298 298 299 297 299 301 299 299 299 295 294 294 294 294 294 294
305 305 305 303 305 306 304 304 306 305 307 308 306 307 308 308 307 307 308 306 309 311 304 301 302 302 301 300 300 302 301 301 301 299 298 301 303 301 301 302 302 304 309 306 305 306 306 300 297 302 302 301 303 304 304 305 305 306 306 304 303 301 301 301 299 296 298 297 295 295 298 302 302 299 297 296 298 300 298 299 304 301 296 295 295 295 294 294
305 306 306 304 304 306 305 305 305 305 308 308 305 306 306 307 308 306 310 314 314 313 307 302 302 302 301 300 302 302 302 302 300 297 298 300 302 301 301 304 300 301 310 308 304 305 302 296 297 303 303 302 303 303 305 304 302 304 304 301 300 299 299 299 297 296 300 299 295 294 295 298 298 296 298 299 299 301 299 301 306 303 299 298 297 296 295 295
305 305 305 305 304 305 306 306 305 306 307 308 307 306 305 307 308 305 309 316 312 308 307 306 303 302 302 300 300 302 302 302 299 298 299 299 299 299 302 308 304 302 306 305 304 305 300 297 299 302 302 303 303 304 304 301 303 305 301 298 299 298 298 298 296 295 298 297 295 294 294 295 296 297 301 301 301 302 302 303 304 303 303 303 299 296 295 294
304 304 305 304 304 305 306 306 306 305 306 311 310 306 305 306 307 307 308 308 306 306 307 307 303 302 303 301 301 305 305 302 302 300 297 298 299 299 302 307 307 308 304 299 304 307 299 299 302 302 303 303 304 306 303 300 303 304 297 297 299 298 298 298 297 298 298 296 297 298 294 297 300 300 303 301 299 302 303 305 307 308 311 311 308 302 296 292
303 304 303 303 304 305 307 308 308 307 308 311 309 307 306 304 306 309 307 303 305 307 307 306 304 303 304 302 303 307 305 303 304 301 298 298 298 299 301 305 307 308 302 299 305 305 299 299 300 302 304 302 303 302 298 299 301 298 295 296 298 299 300 299 298 301 300 297 298 299 296 298 302 303 303 302 301 305 306 306 309 311 311 310 311 308 297 291
302 303 302 303 304 304 309 311 309 308 309 309 307 307 304 306 315 314 305 303 305 305 306 306 305 306 306 306 309 308 303 305 306 301 301 301 301 301 299 300 304 306 305 302 303 302 299 297 298 300 302 300 301 298 294 298 299 295 295 295 296 298 298 298 301 301 301 303 302 299 297 298 300 303 305 305 306 308 307 307 307 307 306 304 302 300 295 293
302 302 302 304 304 305 310 310 309 307 307 306 305 306 304 309 321 316 302 303 305 305 307 307 306 310 309 305 309 310 305 307 305 302 304 303 305 307 300 300 304 305 311 312 306 301 298 299 301 301 299 297 300 298 293 295 295 294 297 297 296 299 297 299 304 301 301 308 304 296 295 297 299 303 304 305 306 304 303 303 303 301 300 299 296 294 293 293
302 303 304 305 305 307 309 309 309 307 306 305 304 309 312 310 312 312 306 305 306 306 307 306 306 309 307 302 306 309 306 306 305 301 302 302 304 307 304 306 307 305 312 314 307 304 301 301 300 298 298 297 300 300 294 294 294 294 298 301 301 302 300 302 306 302 304 308 300 294 296 298 298 300 300 301 301 299 298 297 296 296 295 294 292 291 290 290
305 304 304 306 306 307 308 307 307 307 306 306 307 315 319 311 308 310 310 309 304 304 305 305 305 305 305 304 306 305 302 304 305 302 301 300 302 307 306 305 303 301 304 303 303 305 304 303 298 298 300 297 299 301 298 298 296 294 297 303 304 303 300 302 305 302 303 305 297 292 296 300 300 301 301 300 298 296 293 293 292 292 292 291 290 290 289 289
305 305 304 305 306 306 307 306 305 307 306 306 312 314 310 308 310 307 309 311 306 304 306 305 305 305 304 304 305 303 301 303 304 302 303 303 303 309 309 302 299 300 300 300 302 303 303 305 303 302 301 297 297 299 299 300 297 294 296 298 302 305 302 303 307 306 305 307 300 293 297 304 306 302 298 296 295 293 292 292 291 290 290 290 290 289 289 289
304 304 304 305 305 305 307 305 305 306 305 310 320 315 308 310 310 305 309 311 307 307 306 302 303 306 307 306 304 302 301 301 303 302 304 304 305 310 311 305 302 302 300 305 306 300 299 303 301 297 296 295 297 296 296 298 298 295 294 294 299 303 301 301 304 302 299 301 301 298 300 304 303 298 293 291 292 291 291 291 290 290 289 289 289 289 288 288
305 303 304 304 304 305 305 305 306 305 305 315 318 312 314 315 305 305 309 306 304 306 305 305 305 306 311 310 306 303 300 299 303 303 303 305 305 305 306 305 303 302 302 307 308 301 300 302 300 297 296 295 295 295 294 298 299 295 294 298 299 295 295 299 301 297 295 297 300 300 300 299 299 298 293 290 291 290 290 290 289 289 288 288 289 288 288 288
305 303 303 303 304 305 304 305 306 305 310 317 312 310 316 311 302 306 309 304 304 303 301 306 307 304 306 308 309 308 302 301 302 302 302 305 303 302 304 303 300 300 300 301 304 302 301 302 301 300 300 296 293 295 297 297 297 298 298 299 296 293 296 301 299 297 298 298 299 301 301 299 299 300 293 290 291 290 290 290 289 289 288 288 288 288 288 288
304 303 303 303 303 304 305 306 305 308 316 315 310 311 311 306 302 306 307 303 303 302 301 304 305 303 303 305 310 307 301 303 306 303 302 303 301 302 304 302 299 299 299 297 300 303 302 302 301 297 298 298 294 296 301 298 294 296 298 296 295 297 300 300 299 300 300 299 301 305 304 299 296 295 292 290 291 290 289 289 289 288 288 288 288 288 288 287
306 308 307 303 303 304 306 306 305 311 315 311 313 312 305 305 306 304 304 303 301 302 303 302 301 302 304 304 308 306 301 304 306 302 301 302 300 301 301 300 300 301 300 298 299 301 301 302 301 296 295 297 296 297 304 303 296 294 295 295 296 297 299 299 299 302 300 298 300 303 302 299 293 291 290 290 290 290 289 289 288 288 288 288 288 288 287 287
306 310 308 302 303 305 304 305 310 318 315 308 314 313 304 306 307 302 302 303 301 302 302 302 301 302 304 305 305 303 301 304 303 300 301 301 301 302 301 300 302 302 300 298 298 299 299 300 301 298 295 297 298 300 303 305 302 300 299 299 297 295 298 299 298 299 298 296 299 298 299 298 292 289 290 290 290 290 289 289 288 288 288 288 288 288 287 287
307 312 308 302 304 305 306 311 313 314 314 309 310 309 305 307 307 304 302 301 301 302 301 302 302 301 303 304 303 301 301 305 303 301 302 301 301 302 298 298 303 302 299 299 300 301 300 299 300 300 298 298 299 300 300 300 301 301 301 302 300 298 299 298 298 299 296 297 300 299 299 298 292 289 290 290 290 290 289 289 288 288 288 288 288 288 287 287
312 313 305 302 304 304 311 316 307 305 312 309 305 305 306 307 305 304 304 301 301 302 301 301 302 302 304 303 302 301 301 304 304 303 304 302 302 301 298 297 301 300 299 301 303 303 300 298 298 298 298 298 298 296 295 296 296 297 298 298 298 300 301 298 299 300 297 297 298 296 298 298 291 289 291 290 290 290 290 289 289 289 288 288 288 288 287 287
316 310 302 303 305 305 310 311 305 308 314 307 301 304 304 305 306 305 304 304 302 301 303 303 302 302 302 301 301 301 300 302 304 305 306 304 303 301 300 300 299 298 299 301 301 300 298 297 298 299 299 298 297 294 293 294 296 296 298 297 295 298 300 298 298 299 297 297 297 296 298 297 290 289 291 291 290 290 289 289 289 289 288 287 288 288 287 286
314 305 304 304 303 307 309 307 307 313 316 310 308 308 305 303 306 307 305 306 304 302 304 305 302 299 299 300 301 301 301 301 302 302 301 302 302 301 300 300 298 298 299 300 299 298 298 300 299 299 301 300 300 298 296 296 297 297 299 297 293 295 297 296 295 296 295 296 297 297 298 296 292 290 291 291 290 289 288 288 288 289 288 287 287 287 286 286
307 303 307 307 302 305 308 310 314 316 315 314 310 308 307 305 305 305 305 304 303 302 303 302 300 299 300 301 300 301 303 300 301 302 300 300 303 302 302 301 298 297 299 300 299 296 297 300 298 298 301 301 301 302 299 297 296 296 297 294 291 292 294 295 295 295 295 296 297 296 297 295 292 291 290 290 290 289 288 287 288 288 288 287 287 287 286 285
305 305 310 310 307 307 304 304 313 314 309 310 306 303 306 307 304 301 302 303 302 302 302 301 300 300 300 301 302 304 305 300 300 303 301 302 306 303 301 300 299 299 300 301 300 296 297 299 297 297 300 299 299 298 296 296 296 296 297 293 291 291 291 293 294 295 294 294 295 294 293 293 292 290 290 289 289 289 288 287 287 288 287 286 287 287 286 285
304 307 308 308 310 311 306 305 311 310 303 304 303 302 305 308 304 301 301 303 302 301 303 302 301 302 302 301 302 303 304 301 301 301 300 303 306 303 299 299 299 301 300 300 298 295 296 299 297 296 297 297 297 296 295 296 295 295 295 293 292 291 291 292 293 293 292 293 295 293 291 291 291 289 289 288 288 288 288 287 287 288 287 286 286 286 286 285
301 303 303 303 304 306 303 303 308 310 306 304 304 303 304 307 304 300 300 301 300 300 302 303 302 303 303 301 301 302 303 302 301 302 302 302 302 301 299 298 298 298 298 299 299 296 295 298 298 297 297 296 295 296 297 296 293 291 291 291 292 292 292 292 291 291 290 292 293 291 289 291 290 288 288 287 286 287 287 287 287 287 287 286 285 285 285 285
302 304 300 299 302 304 301 301 306 311 308 305 306 304 304 305 303 300 299 301 302 301 300 302 303 303 302 300 300 301 303 302 301 302 301 300 298 298 299 299 298 297 296 298 298 296 297 300 298 296 296 295 295 297 297 295 294 291 289 289 291 291 291 291 290 290 289 290 290 289 288 290 288 287 287 286 286 287 287 287 287 286 286 285 284 284 285 284
306 307 302 303 306 304 303 303 307 312 308 304 304 302 302 304 303 301 300 301 303 301 299 301 302 302 302 301 300 301 301 300 300 300 299 298 298 297 297 298 298 297 297 297 297 296 298 299 297 296 296 295 296 298 296 295 295 292 288 288 289 290 290 290 289 290 288 288 288 287 288 289 287 286 286 285 285 285 286 286 285 285 285 285 284 284 284 284
303 302 301 308 307 302 304 306 306 310 308 303 303 302 302 303 301 300 301 301 301 301 299 300 302 302 302 301 301 301 300 299 298 298 297 297 297 296 297 298 297 297 298 297 296 296 296 296 296 296 295 295 295 296 295 294 293 291 287 287 288 289 290 289 288 289 288 288 288 287 288 288 286 285 285 284 284 284 285 285 284 285 285 284 283 283 283 284
302 300 300 308 306 300 304 306 305 309 306 300 300 302 301 302 301 299 299 300 300 299 299 300 299 300 302 301 300 299 297 297 296 295 294 295 295 295 296 296 294 295 298 297 295 295 293 294 296 296 295 295 294 295 295 294 294 293 288 286 286 288 289 289 288 288 288 288 287 287 287 286 285 284 284 283 282 282 284 284 284 285 284 283 282 282 282 283
Wind_Speed
8 9 9 9 10 10 11 10 10 10 9 9 8 8 8 8 7 6 5 5 4 4 5 6 6 4 4 3 2 1 1 2 4 4 3 3 6 8 9 9 9 10 9 7 4 1 4 4 4 5 4 2 1 1 1 1 2 1 2 2 3 3 3 4 5 4 2 3 3 3 3 4 3 2 0 1 1 2 3 3 4 5 5 6 5 4 1 11
8 8 9 9 10 10 11 11 10 10 10 10 9 9 8 8 8 8 7 6 5 4 5 6 5 5 5 5 4 2 3 4 6 5 4 3 6 7 8 9 9 9 8 5 2 2 5 3 3 5 3 1 1 1 0 1 1 2 2 1 4 4 4 4 4 3 2 3 2 2 2 4 4 2 2 2 3 1 4 6 2 6 10 9 6 4 7 17
8 9 9 9 10 10 10 10 10 10 11 11 11 9 9 9 9 8 8 7 6 5 5 5 5 6 5 7 6 2 4 4 5 4 2 4 6 7 8 9 9 8 7 3 2 3 6 5 6 5 3 1 1 1 1 1 1 2 3 3 6 4 4 4 5 5 3 1 1 3 2 3 5 2 2 3 4 2 6 7 4 7 13 11 6 7 13 18
8 9 9 10 10 10 10 10 10 9 10 10 11 10 9 8 8 8 8 7 7 5 5 5 5 6 5 6 5 2 3 3 3 2 3 5 6 8 9 10 8 7 6 1 3 3 5 6 6 4 4 1 4 2 1 3 2 1 3 4 5 3 3 5 5 5 3 1 2 2 1 3 5 2 2 3 2 6 8 9 9 12 14 10 6 8 14 16
8 9 9 10 10 9 10 10 10 10 10 9 9 10 10 9 8 8 8 8 7 6 5 4 6 5 4 5 5 2 2 3 2 2 5 6 6 8 9 10 7 6 5 1 3 4 4 4 5 4 3 0 2 3 2 4 2 1 3 5 5 4 3 6 2 2 2 2 2 1 1 4 2 2 5 6 6 8 6 8 11 13 11 8 8 10 12 13
9 9 10 10 10 10 10 10 11 11 11 10 9 8 8 9 9 8 8 8 7 6 5 5 5 5 3 5 5 1 2 0 3 2 5 5 6 8 9 9 6 6 4 1 2 4 3 4 4 2 2 1 2 2 4 3 2 2 4 3 4 4 4 4 2 1 1 2 2 3 2 2 1 4 5 8 12 12 5 5 7 9 8 7 10 10 11 12
9 10 10 10 9 9 9 10 10 11 11 11 10 8 7 8 9 9 9 8 7 6 5 5 5 4 4 5 4 1 3 3 3 2 4 5 6 8 8 7 6 6 4 1 1 4 4 5 2 3 3 2 2 4 4 3 2 3 4 5 4 3 5 3 2 1 1 3 5 2 2 2 5 5 2 6 16 16 7 3 2 3 2 7 9 10 12 13
10 10 10 10 9 9 9 9 10 11 11 11 10 8 7 7 7 8 8 8 7 6 5 5 4 4 5 4 3 2 2 3 2 2 4 5 6 6 6 6 6 6 4 2 1 3 3 4 3 3 2 2 3 3 1 2 1 3 5 4 2 1 5 5 3 2 1 4 4 1 4 7 8 3 3 10 17 14 9 5 3 2 4 7 8 10 11 12
10 11 11 10 9 9 10 10 10 10 10 10 9 8 7 6 6 6 6 7 6 5 5 5 5 5 6 4 4 2 3 2 2 3 4 6 6 5 5 5 5 5 3 3 2 4 2 2 3 3 3 2 4 3 1 0 3 5 5 3 2 3 5 5 4 3 3 3 1 2 8 8 5 2 6 16 16 11 8 8 6 4 5 7 8 10 11 12
11 12 11 10 9 9 9 10 9 8 8 8 8 7 6 5 5 5 6 5 4 5 5 5 6 7 7 3 5 1 3 1 3 4 6 7 6 4 4 4 5 5 3 2 1 4 3 3 3 3 4 2 3 2 1 3 3 3 3 3 3 4 5 2 3 4 4 4 2 4 10 8 4 2 7 12 7 4 4 8 7 6 8 9 8 9 10 11
11 12 11 10 8 8 8 7 5 4 4 5 6 5 4 3 3 5 5 5 5 5 6 6 7 9 7 3 5 3 2 2 3 5 7 8 7 4 4 3 4 5 3 2 0 3 1 4 5 4 1 1 2 1 1 4 1 1 1 4 6 6 6 2 3 5 3 3 4 5 8 9 2 1 12 12 3 1 4 8 7 7 9 8 8 8 7 10
11 11 10 9 8 8 7 4 1 3 4 5 5 4 3 3 5 6 7 6 6 6 7 7 9 9 3 3 3 4 2 3 3 5 7 8 8 6 4 3 3 5 3 2 2 1 2 3 6 4 2 2 1 1 2 2 2 0 2 4 8 7 7 4 2 4 1 1 4 3 7 8 4 9 17 11 1 2 3 7 7 8 9 7 7 7 7 10
11 10 9 7 7 7 6 4 5 6 6 6 5 5 5 6 7 8 7 7 6 6 7 8 8 6 2 1 3 4 1 2 2 5 6 8 8 7 4 4 4 6 5 3 3 3 3 4 7 4 2 3 1 1 2 3 2 2 2 2 6 7 6 5 1 1 1 1 2 2 7 8 6 13 16 6 1 1 4 8 8 8 8 7 7 7 8 10
10 8 7 6 5 5 6 7 8 8 7 7 7 7 7 8 8 7 7 7 6 6 6 7 7 3 2 2 3 2 2 1 2 6 8 9 10 7 3 4 5 6 5 3 2 2 3 3 7 4 2 2 1 0 3 5 3 2 2 2 3 3 5 7 1 3 2 2 1 4 5 9 8 14 12 4 3 5 7 10 9 8 7 7 7 8 9 10
9 7 6 5 3 3 6 9 10 9 9 9 9 9 8 8 7 7 7 7 8 8 6 6 5 2 2 3 3 3 3 2 3 7 8 10 12 6 4 6 6 3 2 2 2 3 5 6 6 4 0 1 3 2 2 4 4 3 2 3 3 1 5 9 3 5 3 2 2 4 5 9 11 14 7 1 3 6 7 11 10 10 9 9 9 8 9 10
7 5 4 2 3 4 6 8 9 9 9 9 9 9 8 8 7 7 7 9 10 8 6 3 1 2 2 2 1 1 2 2 4 7 6 10 11 6 7 8 4 1 0 1 5 5 5 5 4 2 1 1 4 4 3 4 4 3 0 4 4 3 4 7 3 3 2 1 1 3 5 8 12 12 3 4 5 5 6 10 11 12 11 10 9 8 9 9
5 4 1 2 4 5 7 8 9 9 9 9 9 8 8 8 7 7 8 8 7 4 2 2 1 2 0 2 1 2 3 3 7 7 5 10 10 7 8 5 2 3 3 3 4 3 4 4 1 1 2 2 2 4 4 4 5 3 1 2 4 4 4 5 4 2 2 1 4 3 5 11 17 18 12 4 6 5 8 12 14 14 12 11 8 8 9 9
4 3 1 2 4 6 7 9 9 9 9 9 9 9 9 9 8 7 7 6 4 0 2 1 2 2 2 2 1 3 5 7 9 6 5 9 9 7 5 2 2 5 5 4 2 1 2 3 2 1 3 3 2 5 1 5 4 3 3 3 4 4 4 5 5 3 3 1 5 2 6 16 21 21 19 10 6 8 13 14 15 15 14 12 9 10 10 9
4 3 3 3 4 5 7 8 8 8 10 11 11 11 9 8 6 4 4 4 2 0 1 2 1 2 3 3 3 6 8 8 7 3 5 9 7 4 3 4 3 3 3 1 3 2 1 2 3 0 2 2 3 6 7 8 6 5 4 4 4 6 6 6 6 4 1 3 7 6 8 16 20 20 20 11 6 9 14 13 13 13 13 12 10 11 11 11
4 3 3 4 5 5 6 7 6 6 9 9 7 6 5 4 4 3 1 1 3 3 2 3 3 2 2 3 5 8 8 5 2 2 7 10 6 2 2 5 6 4 3 1 2 2 2 1 3 6 7 7 7 7 6 4 4 3 2 3 5 6 8 5 3 4 1 2 7 6 8 15 19 20 20 13 4 8 13 13 13 13 12 12 11 12 12 14
4 3 4 5 7 6 6 6 6 6 7 3 0 1 1 2 2 2 3 2 2 4 1 3 3 2 4 3 4 6 3 2 1 2 8 10 4 1 2 4 5 1 2 1 2 3 2 2 7 9 8 7 5 5 4 4 3 1 2 4 5 5 9 7 2 4 1 2 5 2 6 16 19 20 19 13 8 11 12 12 14 14 13 11 11 14 14 13
4 4 5 7 9 8 6 7 7 7 5 3 3 1 2 3 2 1 1 2 4 2 0 2 1 2 4 2 3 3 3 3 3 2 8 9 4 1 3 4 3 3 3 1 1 4 2 6 9 7 4 4 3 4 5 4 3 1 2 2 5 4 6 8 3 3 1 3 4 4 6 17 21 20 18 14 10 12 10 10 13 12 11 11 11 13 13 12
5 5 6 8 10 10 8 7 8 7 4 4 4 2 2 2 3 3 2 1 4 2 1 1 1 2 3 1 1 3 3 2 2 5 9 8 3 2 1 3 2 1 2 1 4 1 2 6 7 3 6 6 4 3 5 2 2 3 3 2 6 3 1 4 4 4 2 4 4 4 5 14 18 15 14 11 8 8 7 9 12 10 11 14 11 9 10 12
7 6 7 9 11 11 9 8 7 6 4 3 3 3 3 3 4 3 2 1 3 3 1 1 1 2 1 1 2 3 1 1 3 4 8 6 1 1 2 3 2 1 2 3 6 5 7 6 2 5 5 6 4 2 5 3 3 4 5 6 7 5 4 6 4 5 4 2 2 3 5 9 10 9 11 6 3 6 6 7 11 9 11 12 10 10 10 11
7 6 8 10 11 11 10 8 6 6 4 2 1 4 5 3 3 3 2 3 2 4 2 1 0 1 1 1 3 1 1 1 3 3 5 4 2 0 1 2 2 2 4 3 4 5 8 4 4 5 2 3 5 3 5 6 3 4 5 10 10 7 5 4 5 6 5 4 2 2 4 7 4 8 14 9 7 10 5 5 12 11 9 9 10 12 11 10
6 7 8 10 12 11 9 5 5 6 3 2 4 4 4 3 2 3 4 4 2 5 2 0 0 1 1 2 3 0 1 3 3 1 3 3 2 1 0 1 1 1 4 3 2 4 3 1 3 4 4 3 4 5 5 7 3 4 4 5 6 3 2 1 4 3 1 4 4 2 0 7 4 9 16 9 9 13 9 8 12 11 9 8 9 11 9 9
5 7 9 11 13 13 8 3 6 7 2 2 5 5 3 2 1 2 3 5 3 2 1 1 0 2 1 2 3 1 1 4 2 2 2 2 2 1 1 3 1 1 3 2 2 3 3 2 2 3 4 3 4 5 5 8 6 3 3 3 5 5 3 2 0 1 3 4 5 3 4 6 5 7 11 6 8 14 11 12 12 10 11 9 9 10 9 9
4 6 9 12 14 14 6 2 6 6 2 2 4 7 5 1 1 1 4 3 2 0 1 2 0 2 2 2 3 2 3 4 2 2 2 2 1 2 1 5 5 4 3 4 4 5 3 4 4 5 3 3 5 5 7 10 5 4 3 4 5 4 3 3 3 2 2 3 6 4 4 4 7 6 5 3 6 12 12 13 12 10 10 8 8 9 8 8
3 5 9 12 15 14 4 1 5 4 3 3 2 7 7 1 2 3 5 0 2 1 0 2 0 2 4 3 3 2 2 2 0 4 3 2 1 2 1 4 5 3 3 4 6 6 1 4 6 7 4 5 4 2 5 8 4 3 5 5 4 4 3 3 4 1 2 2 9 8 6 4 7 3 2 3 4 9 10 10 10 10 10 9 9 9 7 7
1 4 9 13 15 12 4 2 3 3 3 3 3 7 5 1 4 6 2 2 1 1 1 1 1 2 6 5 5 4 1 2 2 4 3 1 2 4 1 3 5 3 2 2 5 6 1 1 3 4 4 5 4 2 1 3 3 4 5 4 4 4 3 3 2 3 3 3 9 6 9 7 5 2 4 4 4 6 7 8 8 9 10 10 9 9 9 9
2 5 11 12 12 9 4 2 3 3 3 5 6 5 2 3 5 5 1 4 1 2 1 1 2 3 6 4 4 4 2 3 4 3 3 2 3 4 2 1 2 2 3 4 4 5 2 1 2 2 2 4 6 4 3 2 3 4 3 3 2 3 3 4 4 3 1 5 6 3 4 6 5 6 4 5 8 5 4 8 12 14 15 14 13 12 11 10
5 6 11 10 9 8 3 2 4 3 3 6 5 4 4 3 2 1 3 4 2 2 1 1 3 3 4 2 2 3 3 3 3 2 1 2 2 2 2 4 2 2 5 3 3 6 3 4 3 1 1 4 5 3 3 3 3 4 3 3 2 4 3 3 3 0 2 7 4 1 1 3 6 9 7 12 15 10 9 9 11 13 14 15 15 15 13 11
6 6 9 7 5 5 3 4 3 2 3 5 3 5 6 4 2 3 3 3 2 2 1 0 2 1 1 3 3 3 2 3 2 3 0 1 2 4 3 3 3 1 3 3 2 5 4 4 1 1 2 3 6 4 1 1 2 4 4 3 3 1 1 4 4 3 5 7 3 1 1 2 5 6 7 12 12 10 13 11 11 11 12 13 13 14 14 15
5 5 6 5 4 3 3 2 2 2 5 3 4 5 5 0 5 3 2 4 2 2 1 0 3 3 1 2 3 2 1 2 2 3 2 2 2 3 4 3 1 3 1 1 2 1 3 6 2 3 1 2 5 4 3 4 4 4 3 4 4 4 3 4 4 5 7 6 4 2 1 3 3 2 4 6 8 11 12 12 13 13 12 11 11 14 16 17
6 6 5 4 3 2 3 2 1 3 6 4 6 5 3 3 4 1 3 4 2 3 3 1 2 4 3 3 3 2 0 2 3 3 2 1 2 3 2 3 2 3 4 0 3 1 2 7 4 1 1 4 3 1 3 5 2 1 2 4 2 4 4 3 3 4 2 3 4 3 3 4 4 2 9 11 12 14 14 15 16 16 14 13 14 16 16 15
6 7 7 6 5 3 3 3 1 3 5 5 6 3 3 4 2 2 3 2 1 2 4 4 3 3 4 4 3 3 2 1 3 4 2 2 3 4 2 2 3 3 4 3 3 1 2 7 3 2 1 3 3 1 1 1 1 1 2 2 4 4 4 1 3 0 3 1 4 2 4 5 3 4 12 17 17 18 17 16 16 15 16 16 15 14 14 14
5 6 7 8 8 4 4 3 3 3 4 6 5 2 4 3 3 4 2 1 1 0 3 3 2 1 3 3 4 4 3 2 3 3 2 3 2 3 2 1 1 2 2 1 3 1 1 6 3 2 1 2 1 1 2 1 3 4 2 5 3 1 2 2 1 3 2 3 4 1 6 7 3 3 11 19 20 19 17 15 15 16 17 17 15 14 14 14
4 5 6 9 9 3 3 4 4 4 5 6 2 3 3 2 2 2 1 0 1 1 3 1 3 1 1 2 4 3 2 3 3 3 2 3 2 2 1 2 2 1 2 1 3 1 2 4 6 1 1 3 2 1 3 3 1 3 3 3 1 1 3 1 1 3 2 4 4 3 6 4 1 3 9 14 15 16 16 14 15 16 16 15 14 15 15 15
2 3 4 8 8 3 4 3 3 4 6 3 1 2 1 2 1 0 0 1 0 1 1 2 2 2 1 2 3 3 2 2 2 3 1 1 2 1 2 1 1 3 4 0 2 2 1 0 5 2 1 2 3 1 2 3 2 2 1 3 1 3 4 2 1 2 2 5 6 5 6 2 2 3 7 9 10 12 13 12 13 14 14 13 12 13 13 14
2 2 2 6 6 3 2 2 3 5 5 2 4 2 1 2 2 1 1 1 1 1 0 1 0 2 3 2 2 2 2 1 1 1 2 1 3 3 3 2 1 2 4 2 1 2 1 1 4 4 3 2 2 3 5 4 2 1 1 3 2 1 1 1 1 1 1 4 4 4 6 2 3 3 4 6 8 9 10 10 10 10 11 12 11 11 12 12
3 3 2 5 5 1 1 5 4 3 3 2 2 1 1 1 1 3 3 2 1 0 0 2 2 1 2 2 2 2 1 1 1 2 3 2 2 2 2 1 2 1 2 3 1 2 1 2 3 5 5 5 7 4 5 5 4 3 2 3 2 2 1 4 5 1 1 3 3 2 6 3 2 2 3 5 6 7 9 9 8 9 10 10 11 11 11 12
5 3 3 5 5 2 4 5 2 1 3 1 1 1 1 1 1 2 2 2 1 0 1 1 2 1 1 1 2 1 1 2 2 2 2 3 3 3 2 2 2 1 1 2 3 2 2 2 2 5 7 9 9 3 2 1 3 3 1 1 1 2 3 3 7 3 1 2 2 2 3 2 1 1 4 5 5 7 9 9 8 8 9 10 10 10 11 12
3 1 2 6 6 3 6 4 3 3 1 2 2 1 0 1 1 1 1 1 1 1 2 1 1 1 1 1 1 1 1 2 3 3 3 2 3 5 4 5 4 2 2 3 3 1 1 1 1 4 6 8 5 3 4 3 4 3 1 2 2 1 1 3 5 1 1 5 4 3 5 2 2 2 3 3 4 7 9 10 10 8 8 10 10 10 11 12
2 2 1 6 6 3 4 2 1 3 3 3 3 3 2 1 2 0 1 2 0 1 1 0 1 1 1 1 0 1 2 1 2 3 1 1 3 3 4 5 5 4 3 4 3 2 2 1 1 4 7 8 6 4 4 4 5 1 2 3 6 6 6 3 2 1 2 7 8 8 7 1 3 1 5 5 5 7 10 11 10 8 8 10 9 8 10 12
2 1 1 5 8 6 3 3 4 2 2 2 3 4 4 2 1 0 0 1 1 2 1 1 0 1 0 0 0 2 2 1 3 2 2 1 4 3 5 5 5 4 4 5 5 2 3 2 2 3 7 8 8 7 5 5 6 4 1 6 8 7 6 4 2 2 3 6 7 6 5 3 1 5 11 12 11 11 12 13 11 9 9 10 10 9 10 11
2 1 2 5 7 7 3 1 3 4 1 1 2 2 2 2 2 1 1 0 0 1 1 1 0 1 1 2 2 3 3 2 3 3 3 4 4 2 4 5 5 5 6 7 6 2 1 2 1 3 6 7 7 8 7 7 9 8 7 9 7 6 4 2 1 2 4 6 6 4 6 6 7 13 15 15 16 15 14 15 15 13 11 11 11 10 10 11
2 2 1 1 3 4 3 4 4 3 1 0 0 1 2 3 4 2 1 1 0 1 1 0 1 2 1 2 2 2 3 2 3 3 4 5 3 4 6 5 5 6 9 7 4 3 2 3 2 2 7 8 7 10 11 9 6 4 6 8 7 6 7 6 3 3 5 5 5 6 10 6 7 13 13 13 15 14 13 14 15 13 11 10 12 12 11 12
2 2 1 1 0 1 2 3 3 4 3 2 2 1 3 4 4 3 1 1 1 2 2 1 3 3 1 2 1 2 4 3 2 3 3 3 3 6 7 4 3 7 9 6 4 3 3 3 3 5 10 11 7 9 10 6 2 4 5 7 7 6 7 6 2 4 4 4 5 9 11 6 6 11 11 11 13 12 11 12 12 11 9 10 12 13 13 12
2 3 1 2 2 2 0 2 2 5 5 3 2 3 3 4 4 3 1 2 3 3 2 1 5 6 3 2 1 1 4 4 4 4 2 3 6 6 5 3 3 6 7 5 4 3 3 2 3 5 12 12 6 7 8 2 3 4 6 6 6 5 5 5 3 5 4 6 7 9 11 7 6 10 11 11 11 10 9 9 11 12 11 10 13 14 14 12
1 3 1 3 4 1 1 2 3 4 4 3 2 2 1 1 4 4 1 1 2 3 3 1 6 8 4 1 2 1 3 3 5 7 3 6 7 4 2 1 2 6 7 4 3 3 3 2 3 4 8 9 4 6 7 1 6 4 6 6 6 5 3 4 3 4 4 6 8 8 9 6 4 9 10 10 11 12 11 11 12 13 11 10 12 14 15 14
3 3 3 5 3 4 3 3 3 4 3 3 2 1 1 1 3 3 1 1 2 3 2 3 6 6 3 3 3 2 5 4 7 10 5 5 4 1 0 1 1 4 6 3 3 4 4 2 4 5 5 8 4 7 11 3 8 6 7 8 9 6 2 3 4 4 4 5 8 8 5 3 5 9 11 11 13 16 15 13 12 11 10 10 12 13 15 15
4 2 3 5 3 3 3 3 3 4 1 2 1 2 2 2 4 2 1 1 3 4 1 2 2 2 2 4 3 4 6 7 8 6 2 1 3 2 1 1 2 1 3 2 2 1 3 1 3 3 3 7 7 11 13 5 3 1 3 5 7 6 5 5 5 6 6 4 5 6 4 6 8 10 13 14 16 18 16 12 12 11 10 11 12 13 16 16
Wind_Direction
296 292 287 284 281 275 271 268 264 262 258 253 250 249 249 251 251 247 240 246 266 285 298 299 310 316 273 241 197 149 254 295 299 291 273 302 333 338 335 331 330 330 328 325 323 116 113 111 143 148 138 122 10 329 166 131 106 98 109 176 236 209 209 195 198 202 190 276 259 244 198 179 253 253 184 355 265 262 274 260 253 274 258 227 238 290 255 173
301 295 292 291 287 283 278 273 268 266 263 256 250 244 242 243 242 245 241 245 260 274 289 287 294 292 264 244 226 249 296 303 311 286 253 308 338 340 340 336 333 335 336 343 359 136 131 127 162 134 89 91 307 6 118 267 133 144 133 211 236 200 222 205 204 220 207 271 253 274 245 198 228 196 116 258 266 300 262 260 225 262 264 244 238 228 176 170
304 300 300 299 294 290 284 278 271 263 259 256 253 246 238 237 238 243 243 247 259 262 273 274 277 275 256 238 228 269 299 308 314 284 290 337 335 335 342 341 334 339 340 358 62 137 138 139 151 122 52 24 284 49 82 287 194 187 150 237 247 216 256 240 223 232 227 297 258 282 278 213 244 193 135 223 266 276 234 244 200 235 253 238 207 168 171 173
304 302 300 300 298 294 289 285 280 271 261 253 251 251 245 241 240 244 246 250 256 254 256 263 267 270 252 225 208 246 305 349 308 263 7 341 331 339 344 342 337 343 346 29 133 137 124 123 129 98 68 353 315 23 146 236 205 184 165 217 238 189 274 264 229 225 224 45 175 223 13 258 254 190 193 176 249 270 236 234 218 227 242 224 183 171 176 178
300 300 300 301 301 296 292 288 285 282 277 266 254 252 251 250 247 246 248 246 250 248 246 250 255 264 254 203 185 241 352 27 298 300 356 336 336 343 342 342 341 350 3 72 151 144 133 114 89 65 72 161 325 34 252 237 139 190 212 217 221 170 250 277 252 216 190 94 129 156 213 255 258 188 217 176 212 250 226 223 219 227 240 202 176 182 179 183
300 301 303 304 304 297 292 289 288 285 282 279 269 257 251 250 248 246 245 245 246 244 242 238 242 254 234 179 179 233 76 134 283 345 339 331 339 339 342 342 344 354 9 69 141 132 114 68 70 85 69 33 188 184 257 281 87 240 263 267 252 193 227 291 15 264 176 129 187 199 232 258 291 269 234 193 226 241 209 198 215 241 247 189 169 173 180 192
302 303 304 305 303 297 293 290 286 284 280 277 272 266 254 246 242 242 240 243 244 240 240 228 229 232 195 164 177 60 72 247 289 359 327 337 337 334 343 341 343 344 347 16 114 128 93 71 97 149 99 8 231 205 254 321 40 228 264 291 284 199 222 290 356 290 142 191 225 216 296 266 230 264 299 211 235 243 235 204 207 274 220 162 163 176 191 196
303 302 305 308 305 303 300 291 282 276 275 273 271 268 260 248 237 238 235 236 237 234 232 214 215 203 170 160 164 24 354 259 299 337 323 343 333 332 339 339 342 334 331 323 229 156 113 107 167 156 121 276 202 190 271 342 359 210 235 273 287 223 252 289 295 285 309 237 247 247 260 252 228 240 314 250 246 246 241 236 223 111 130 162 182 191 196 201
304 305 312 316 313 314 308 297 283 268 264 265 265 261 256 248 231 229 227 227 223 219 213 197 203 179 162 150 109 35 283 243 325 316 328 340 331 332 330 338 344 340 342 307 248 166 162 184 202 173 185 213 174 197 324 260 263 216 215 265 279 294 299 302 277 292 336 275 243 267 264 268 255 283 275 249 251 258 239 240 236 172 182 199 199 199 198 203
307 312 319 318 316 317 310 301 289 267 254 250 250 249 245 234 214 208 209 209 205 202 190 180 187 170 171 152 89 107 261 350 345 327 334 331 330 327 310 329 351 360 3 331 172 155 164 204 191 139 157 157 163 197 130 169 216 200 206 260 254 294 308 286 257 284 324 280 224 244 268 281 295 323 263 243 254 292 229 241 240 200 224 221 209 212 204 208
311 315 316 316 324 328 324 314 295 253 226 220 224 224 210 191 176 179 180 181 186 186 179 177 175 170 179 128 112 188 285 8 344 341 332 325 331 320 293 295 344 5 8 18 155 189 227 212 163 113 139 189 165 183 236 202 148 120 248 292 287 320 314 278 276 287 312 280 209 195 266 281 329 233 249 253 290 41 209 249 252 222 240 232 220 223 207 219
312 313 315 324 339 346 350 353 42 151 171 177 180 167 144 136 142 153 158 164 174 177 178 174 171 174 171 61 145 216 318 17 351 347 336 336 339 320 295 266 321 352 342 3 340 284 304 230 152 128 245 183 154 296 232 201 85 60 48 319 300 344 332 293 313 296 294 258 197 163 288 273 198 229 248 256 7 80 227 258 258 238 246 242 230 227 217 226
309 313 320 334 350 0 20 62 97 122 142 144 143 131 125 130 133 142 147 157 166 165 170 169 173 171 113 21 225 226 315 27 1 351 340 342 343 324 287 256 304 332 320 324 323 337 324 233 160 154 185 122 230 259 110 50 45 275 45 45 306 346 324 279 346 348 143 235 205 110 296 269 217 244 253 260 171 197 261 257 254 247 247 247 234 230 230 227
309 319 327 342 0 22 56 86 99 111 117 116 116 112 119 125 128 138 141 149 152 149 156 159 171 158 87 255 246 213 237 273 326 345 341 338 344 336 273 261 297 305 307 313 284 349 19 159 139 110 84 103 225 95 44 8 16 302 334 38 346 342 287 283 217 140 155 269 67 114 267 274 268 262 256 258 207 200 249 259 256 253 248 250 239 232 236 229
311 324 334 353 27 63 80 90 96 102 105 105 104 105 113 119 126 135 136 142 136 131 136 147 172 130 60 284 262 206 245 264 312 341 345 342 346 341 298 299 293 278 297 315 142 97 90 125 108 75 279 358 50 62 5 343 8 24 313 306 333 208 268 301 266 178 196 295 63 132 252 279 278 272 261 192 163 176 237 262 263 260 250 246 241 233 238 238
315 329 337 14 74 95 96 97 97 101 102 103 105 109 114 119 130 136 141 144 135 125 112 110 178 106 97 292 285 211 265 296 328 336 339 344 349 336 321 318 303 318 19 154 135 117 83 86 76 69 160 27 64 80 30 352 337 4 35 259 275 246 287 318 300 206 215 331 315 209 252 283 276 276 277 128 142 161 230 263 265 261 253 245 244 237 238 244
316 319 323 84 99 102 101 100 100 101 100 102 106 112 116 119 127 135 143 146 147 143 80 48 35 89 185 286 312 299 305 311 325 327 326 343 347 333 329 330 341 12 60 106 127 127 41 47 70 318 49 44 79 85 34 322 295 323 7 250 256 248 266 303 305 317 37 196 241 227 238 265 270 275 279 228 165 192 245 259 262 261 259 251 246 244 241 242
310 291 214 143 121 109 103 100 100 101 102 104 104 104 108 114 118 127 140 143 150 161 349 352 57 73 289 326 315 292 303 306 316 318 322 344 345 340 346 3 350 360 36 50 42 71 10 26 77 348 10 9 45 97 153 244 227 248 257 259 284 271 239 255 273 299 33 241 241 250 258 265 271 275 278 263 186 222 250 253 259 261 261 260 252 246 244 241
303 267 191 172 148 126 114 108 105 109 114 108 104 105 102 103 104 114 130 125 138 295 294 261 121 161 240 303 300 304 308 304 315 322 344 352 343 345 35 37 15 31 55 9 322 19 45 24 50 339 267 253 210 167 201 221 195 209 225 219 258 276 259 238 247 267 19 301 263 244 253 269 277 278 282 280 191 219 251 253 258 261 261 262 256 251 247 243
295 251 201 198 178 154 135 126 121 131 132 114 100 100 90 73 51 1 333 116 176 163 162 214 194 200 272 299 312 327 321 296 301 29 6 355 346 3 33 19 26 52 73 191 277 3 78 353 257 230 226 223 223 200 197 203 166 161 184 222 242 256 273 263 254 286 62 283 269 243 256 270 275 277 281 285 248 237 254 256 259 259 257 256 251 252 247 243
287 251 225 213 194 181 165 155 150 155 157 150 45 87 147 159 77 335 302 300 230 151 137 236 196 247 279 278 322 348 349 321 313 45 11 357 10 35 316 18 47 18 314 225 264 347 61 254 245 232 226 216 210 175 139 125 126 121 191 252 272 234 265 280 283 303 10 202 265 325 302 280 276 279 281 289 281 261 254 250 258 257 255 256 249 249 246 245
276 257 234 213 201 197 187 175 169 172 188 241 258 229 196 191 176 194 149 299 274 167 74 293 183 289 289 275 326 17 59 7 324 316 1 359 25 12 306 44 88 233 313 35 315 350 358 251 250 233 190 126 90 118 122 129 146 156 155 244 282 237 274 297 319 340 38 195 272 1 328 287 283 284 283 283 268 262 253 239 250 254 255 254 244 245 248 251
268 254 230 214 206 205 198 184 180 185 207 261 261 230 207 195 176 168 110 73 289 311 36 29 117 284 325 346 358 52 60 9 283 299 347 5 32 40 78 81 106 214 344 116 179 263 273 252 254 203 144 117 82 103 118 122 172 196 176 211 265 249 286 286 305 335 257 211 279 334 321 286 286 290 287 272 245 260 265 246 249 245 246 252 247 247 245 245
260 245 229 219 209 208 203 190 188 196 221 280 278 207 169 154 161 162 81 67 296 307 277 216 173 203 273 350 21 59 91 201 208 292 351 30 94 21 99 136 122 171 263 185 167 209 243 239 158 116 127 136 149 152 146 183 264 240 206 215 247 249 221 239 295 328 294 294 304 317 312 279 283 300 293 279 255 275 281 273 272 252 241 254 263 257 244 239
254 237 228 218 208 207 201 196 205 206 217 271 211 159 131 123 160 153 75 59 316 305 303 232 198 198 194 36 3 54 158 261 228 266 351 45 132 349 30 146 136 223 230 166 154 237 262 250 137 124 114 134 164 212 192 187 252 295 229 221 238 248 235 254 328 346 339 335 308 18 333 281 300 309 288 296 310 292 298 293 280 271 254 250 257 255 244 241
252 234 225 215 206 198 189 196 213 198 214 253 187 154 117 113 145 130 83 52 325 293 316 215 168 343 259 351 348 69 80 311 259 285 17 57 121 121 106 257 354 232 198 168 181 241 264 339 99 138 152 150 181 244 229 172 170 302 259 217 220 206 162 279 342 354 334 286 263 104 4 273 303 297 282 300 311 292 300 288 273 277 273 249 246 252 244 241
252 234 220 210 200 188 181 201 197 180 198 253 196 176 144 106 142 136 65 30 339 284 329 272 352 44 272 306 357 88 302 309 324 28 53 56 359 89 182 271 306 229 190 149 307 259 178 102 60 119 136 158 201 249 225 155 138 256 241 120 115 119 141 188 141 249 235 284 286 168 166 263 283 275 279 312 312 296 298 287 278 276 272 260 253 256 250 244
252 228 210 203 192 182 180 193 183 176 173 203 187 187 179 108 247 125 72 34 325 38 50 295 316 39 335 340 39 76 284 320 27 291 336 38 336 72 256 243 194 216 207 148 257 267 166 170 193 161 139 195 214 230 193 160 159 241 195 112 105 116 149 157 128 236 280 7 301 242 156 258 270 258 281 321 303 292 288 283 284 282 279 277 272 266 263 263
254 214 197 190 183 180 179 146 172 180 184 178 181 192 193 257 343 66 73 108 298 25 291 328 332 324 343 357 14 20 317 335 112 272 325 40 307 60 225 221 152 188 237 167 232 260 209 209 196 158 170 217 214 226 180 170 190 202 138 97 69 76 80 87 112 150 33 11 267 248 159 220 272 249 266 298 281 275 276 275 274 278 285 290 291 296 304 317
296 189 181 178 177 177 174 135 140 141 165 168 165 180 189 331 46 63 34 251 310 337 250 343 308 331 16 11 325 337 336 294 317 319 348 39 336 23 133 190 103 123 276 315 251 256 317 252 188 157 195 195 142 88 119 149 151 136 110 73 39 44 58 45 73 94 52 274 263 245 171 201 279 248 216 247 245 249 272 291 298 310 320 318 320 332 341 342
64 160 165 167 172 176 174 141 132 111 125 149 148 142 113 18 67 89 255 247 254 340 352 12 335 19 43 32 311 329 354 314 331 353 350 345 343 9 65 208 59 70 347 337 286 291 345 165 225 235 181 128 102 71 55 74 107 113 85 57 12 339 24 19 358 56 83 252 265 281 195 194 248 259 253 273 279 289 317 319 326 332 332 332 338 345 348 340
67 148 159 157 166 174 158 137 151 112 118 149 137 87 74 34 17 160 266 301 346 340 11 321 321 26 39 12 272 298 327 307 336 54 15 343 332 276 201 193 197 343 326 299 309 323 286 219 251 306 163 136 120 84 37 20 61 105 97 68 34 329 350 342 308 160 220 248 256 306 218 206 238 259 280 282 289 330 15 355 339 336 335 341 346 347 349 347
70 134 155 152 160 169 133 110 126 130 164 158 99 52 76 75 267 230 277 322 335 330 15 259 315 5 353 318 281 276 283 261 335 43 254 358 338 280 255 210 180 182 284 261 327 338 309 299 345 147 262 179 156 152 191 244 140 148 155 130 134 161 303 278 274 279 275 269 280 69 137 256 278 279 283 284 303 2 22 9 2 1 357 351 349 355 1 3
79 116 150 154 151 172 169 122 71 152 171 136 69 60 72 122 242 229 283 278 269 331 2 204 329 343 291 271 275 285 300 278 357 19 314 350 348 296 296 288 195 129 125 300 308 230 281 300 246 178 257 167 178 191 159 144 147 173 158 134 156 168 195 248 248 259 284 293 298 311 178 212 258 302 338 341 7 25 20 13 14 12 10 2 359 11 14 11
83 99 112 117 109 131 174 179 350 165 163 96 60 74 116 231 254 231 251 263 293 325 305 245 7 353 325 293 298 320 289 287 346 7 320 277 225 241 269 268 218 128 114 225 275 181 237 269 259 294 303 160 187 250 114 114 120 202 123 108 194 194 185 242 223 202 256 322 299 276 221 214 219 343 16 22 26 23 16 16 17 9 8 14 14 15 17 14
85 85 78 68 64 81 139 158 181 167 144 83 63 83 185 222 237 184 217 275 350 311 326 349 36 16 324 314 331 360 24 285 331 354 308 249 230 227 240 241 220 182 131 149 252 312 306 278 273 36 340 161 169 250 100 132 177 140 125 189 227 193 154 233 274 32 77 266 271 260 255 280 314 357 10 13 11 13 11 10 16 9 6 16 19 13 12 13
88 80 63 44 40 65 121 124 142 148 104 82 90 199 223 217 191 184 202 323 252 148 36 3 332 348 330 319 313 333 350 309 326 353 300 292 274 218 223 315 283 211 153 120 276 248 255 288 303 86 323 292 185 229 296 274 148 132 187 241 242 172 101 106 249 325 21 241 264 277 263 291 339 324 357 6 2 1 2 2 10 11 11 15 13 8 7 8
110 98 60 29 23 57 115 105 130 125 82 77 91 238 223 201 187 188 196 254 251 48 69 256 272 317 15 306 293 303 336 316 328 351 303 302 296 209 174 9 31 359 295 298 295 277 133 295 314 49 198 294 359 45 304 310 106 140 206 259 71 189 271 7 190 259 263 260 281 284 270 289 52 297 344 2 355 351 352 358 7 9 12 11 5 4 3 5
115 107 37 8 14 72 109 101 113 78 69 90 223 246 218 250 272 174 249 315 55 79 73 241 278 351 301 210 263 301 335 295 315 351 330 290 300 331 32 14 35 355 318 267 225 260 104 235 288 300 179 299 5 74 251 305 3 54 330 326 36 178 220 225 203 217 234 265 278 285 281 288 79 334 336 348 350 350 349 357 6 5 7 6 3 2 0 3
85 91 350 351 19 79 122 71 68 59 71 152 207 212 260 278 300 7 349 348 58 83 299 234 203 328 286 260 278 298 333 268 218 310 274 277 310 328 10 18 48 348 324 10 130 252 21 150 252 303 352 327 303 202 191 200 186 135 304 290 277 222 244 275 246 173 207 260 268 285 281 264 78 19 347 347 353 355 352 357 360 358 3 2 360 1 360 3
75 68 316 344 17 27 54 54 52 63 94 153 213 219 273 254 33 357 349 35 74 19 112 158 170 236 269 319 315 273 321 312 227 228 248 265 305 306 17 29 202 203 349 359 8 239 245 170 233 297 315 292 280 238 188 192 185 164 198 226 221 196 240 291 278 239 138 239 205 240 283 282 89 32 11 7 360 0 360 358 353 354 1 359 358 1 0 3
74 69 309 350 2 338 58 59 359 70 112 168 263 254 307 39 64 355 340 23 56 35 26 94 166 198 194 241 279 275 333 289 229 210 242 232 221 236 321 345 260 169 60 310 264 228 183 150 239 278 275 276 286 313 58 143 130 113 156 168 170 157 138 246 272 293 1 275 175 151 272 262 142 14 17 20 11 10 3 357 353 352 357 356 355 358 0 2
90 135 329 13 2 8 69 60 332 8 54 258 282 250 284 64 78 17 341 352 41 87 11 13 184 208 200 201 279 294 287 251 205 201 239 245 232 248 299 340 339 5 13 317 300 298 152 142 257 287 286 286 294 28 36 40 81 78 313 13 8 268 161 223 253 272 247 274 290 279 269 253 115 24 15 24 12 12 8 0 354 349 355 357 352 357 2 1
129 181 350 16 8 29 84 102 3 351 305 308 359 343 337 87 152 81 315 293 310 129 101 321 204 213 243 178 135 245 267 297 242 238 247 227 252 293 346 354 348 6 6 342 340 323 289 315 359 324 312 305 319 8 360 356 34 51 255 10 14 348 337 310 294 40 230 269 282 273 280 297 133 59 13 15 3 8 14 7 355 349 358 356 350 357 2 359
98 73 301 358 26 58 99 158 145 135 292 358 11 343 343 343 218 188 265 260 218 167 158 306 204 135 240 45 28 278 273 223 243 291 14 269 270 329 11 2 0 7 348 344 357 319 274 329 3 309 299 298 310 328 332 339 342 320 327 24 22 1 336 311 306 293 267 301 303 284 299 320 336 2 7 6 360 360 3 1 356 356 2 356 349 356 2 360
105 66 318 339 20 54 72 129 109 111 133 74 6 344 1 332 301 287 158 134 316 171 135 294 284 91 49 29 350 292 289 236 248 306 343 299 275 303 349 9 30 10 334 337 357 359 296 8 53 238 268 284 303 314 322 333 322 316 344 6 12 2 347 16 39 284 300 320 308 313 339 332 344 358 1 1 359 355 352 351 349 349 356 357 349 348 357 1
99 110 71 347 352 26 41 21 43 74 92 122 108 340 334 315 320 347 104 126 339 8 93 150 49 54 347 352 351 285 293 291 269 288 296 282 265 292 338 30 51 357 340 334 343 31 33 325 337 300 282 287 310 312 310 319 323 335 359 355 359 8 19 45 48 302 319 308 288 347 355 342 355 360 357 355 351 348 346 342 340 342 349 355 347 342 350 358
69 144 161 138 35 41 43 15 48 74 40 37 121 8 353 354 356 359 324 306 11 19 20 22 21 21 281 286 313 285 302 304 280 271 274 298 331 328 343 38 47 350 355 347 336 58 84 276 307 337 304 294 303 298 294 306 4 76 34 356 354 8 26 45 359 308 334 295 286 338 332 314 1 359 352 353 344 337 338 332 330 335 341 347 346 344 347 351
76 117 329 12 87 130 125 333 81 87 49 36 65 24 23 19 354 330 282 350 7 5 30 1 326 338 332 241 200 305 329 339 316 283 262 339 352 348 340 346 345 348 7 4 338 57 105 273 315 326 300 296 293 279 284 310 104 74 29 3 354 355 15 31 327 310 322 278 281 321 307 291 10 3 347 347 336 325 328 330 333 336 337 345 348 346 345 342
128 145 172 50 64 66 11 6 73 84 40 25 46 24 41 7 329 323 294 33 359 347 19 354 310 324 345 123 139 309 333 357 305 278 293 338 339 8 11 315 326 339 355 13 337 8 62 337 340 358 309 303 302 284 300 61 122 87 29 9 350 340 355 14 331 315 324 286 287 311 294 275 7 4 343 339 334 329 329 334 338 334 334 343 345 345 344 337
107 131 135 105 62 352 357 12 58 80 40 11 21 303 296 303 319 335 315 300 47 39 358 321 311 318 357 74 89 296 299 304 279 277 301 321 293 172 45 302 336 330 339 10 343 1 41 334 339 34 334 305 330 328 323 10 119 95 37 8 345 335 337 354 338 306 301 299 301 308 301 306 351 348 335 334 341 337 330 333 336 328 333 345 342 343 343 337
103 75 92 105 79 356 2 8 34 71 65 324 317 285 293 298 306 354 32 319 50 65 14 315 327 326 4 25 10 309 288 283 280 289 320 206 207 176 185 309 40 336 306 359 1 8 69 6 338 27 324 300 330 335 326 337 108 75 36 18 339 321 312 327 332 312 298 302 313 308 313 336 343 341 333 336 342 336 330 334 329 320 335 346 340 342 344 341